Vertical_Velocity
-4 -4 -2 -1 -3 -4 -3 1 -0 -4 -7 -5 -3 -2 -2 -3 -2 -2 -1 -4 -6 -9 -10 -10 -10 -9 -7 -4 -2 -1 -1 -2 -3 -4 -5 -5 -7 -9 -12 -14 -16 -15 -13 -10 -6 -5 -5 -6 -5 -3 -1 -3 -7 -9 -5 -0 2 6 16 25 26 19 2 -1 -2 -3 -5 -6 -6 -6 -7 -7 -6 -5 -6 -6 -9 -11 -11 -9 -10 -10 -9 -2 5 12
-3 -5 -3 -2 -3 -5 -7 -1 0 -2 -6 -6 -4 -2 -2 -3 -2 -1 -1 -2 -3 -6 -9 -10 -10 -9 -7 -5 -2 -0 0 -0 -1 -3 -4 -5 -6 -8 -10 -13 -14 -15 -14 -12 -9 -6 -5 -6 -6 -5 -3 -4 -7 -10 -10 -7 -4 -1 2 17 32 38 24 7 -1 -4 -5 -5 -6 -7 -7 -7 -7 -6 -7 -7 -7 -7 -6 -8 -10 -11 -10 -5 2 10
-3 -5 -3 -1 -1 -3 -7 -5 -3 -1 -2 -3 -3 -2 -2 -3 -2 -2 -1 -1 -2 -3 -5 -8 -10 -10 -9 -6 -3 -0 1 1 1 -1 -2 -4 -5 -6 -8 -10 -12 -13 -13 -13 -11 -9 -6 -6 -6 -6 -5 -5 -6 -8 -9 -8 -6 -3 -0 5 19 33 38 19 6 -2 -3 -3 -4 -6 -6 -6 -6 -7 -8 -7 -6 -5 -6 -7 -8 -8 -7 -6 1 10
-2 -6 -6 -4 -3 -2 -2 -4 -3 -2 -0 -1 -2 -2 -1 -2 -3 -2 -1 -2 -2 -3 -3 -5 -8 -9 -10 -8 -5 -2 1 2 2 1 -1 -3 -4 -4 -5 -7 -9 -11 -12 -13 -13 -12 -9 -7 -6 -7 -7 -6 -5 -5 -6 -7 -6 -4 -1 0 3 11 25 22 13 4 -1 -1 -2 -3 -4 -4 -4 -5 -6 -5 -4 -4 -5 -7 -7 -7 -7 -7 -0 9
0 -3 -7 -6 -6 -5 -2 -1 -1 -1 -1 -1 -1 -2 -2 -2 -3 -3 -2 -2 -3 -3 -4 -4 -5 -7 -9 -9 -7 -4 -1 1 2 3 1 -1 -2 -2 -1 -4 -7 -9 -10 -11 -12 -13 -12 -10 -8 -7 -7 -6 -4 -4 -6 -8 -8 -6 -0 0 -1 -1 4 12 13 9 1 -1 -2 -3 -2 -2 -2 -3 -4 -3 -3 -3 -4 -6 -7 -6 -4 -6 -2 6
1 0 -3 -4 -5 -4 -3 -1 -0 -0 -2 -2 -2 -1 -1 -2 -3 -3 -3 -2 -2 -3 -3 -3 -4 -5 -7 -8 -8 -6 -4 -0 2 4 3 1 0 0 1 -1 -5 -7 -9 -10 -11 -12 -13 -13 -11 -9 -7 -7 -4 -3 -4 -9 -11 -10 -2 1 1 0 0 3 6 7 3 -2 -3 -2 -1 -1 -1 -2 -3 -2 -2 -3 -3 -6 -6 -5 0 -3 -3 1
-2 1 1 -2 -3 -3 -1 -1 -0 -1 -3 -6 -5 -3 -0 0 0 -0 -1 -1 -1 -2 -3 -3 -3 -3 -5 -7 -8 -7 -6 -2 1 4 5 2 1 1 3 0 -3 -6 -8 -9 -10 -10 -12 -13 -12 -10 -8 -7 -5 -3 -2 -4 -8 -9 -4 1 4 4 3 3 2 2 1 -2 -3 -2 -1 -0 -1 -2 -3 -3 -3 -3 -3 -5 -6 -4 -0 -4 -4 -1
-7 -2 3 1 -2 -4 -2 1 2 -0 -4 -7 -8 -8 -5 -1 1 3 3 2 1 -0 -2 -2 -2 -1 -2 -4 -7 -8 -7 -4 -0 3 5 4 2 2 3 1 -2 -6 -7 -8 -8 -9 -9 -11 -12 -10 -8 -7 -5 -3 -4 -1 -3 -4 -2 1 5 8 8 5 2 0 -1 -1 -2 -3 -1 -1 -2 -3 -4 -4 -4 -4 -3 -4 -4 -4 -2 -6 -5 -0
-7 -5 -1 2 1 -2 -6 -4 -1 1 -3 -6 -8 -8 -8 -6 -2 1 4 5 4 2 -1 -2 -2 -1 0 -2 -4 -7 -8 -6 -2 1 4 4 3 2 3 2 -1 -4 -6 -7 -7 -7 -8 -10 -10 -10 -9 -8 -7 -5 -4 -3 -3 -2 -1 0 5 10 12 9 5 1 -0 0 -1 -2 -3 -2 -3 -4 -5 -5 -5 -4 -4 -4 -4 -3 -1 -3 -4 -3
-5 -4 -4 -1 1 1 -4 -8 -6 -3 -1 -3 -3 -3 -3 -5 -6 -6 -2 3 5 4 1 -2 -3 -2 -1 -0 -2 -5 -8 -7 -4 -1 3 4 4 3 2 2 1 -2 -4 -5 -5 -6 -6 -8 -10 -11 -10 -9 -8 -7 -5 -3 -2 -2 -1 -1 2 7 13 13 9 5 3 3 1 -2 -4 -4 -4 -5 -6 -5 -5 -5 -6 -5 -5 -4 -2 2 -2 -5
-5 -3 -3 -4 -4 -3 -3 -5 -5 -4 -1 -2 -1 -0 3 0 -4 -8 -10 -4 1 4 3 1 -1 -2 -2 -1 -2 -3 -6 -7 -6 -3 1 4 4 4 3 3 3 1 -1 -2 -3 -4 -5 -8 -10 -12 -12 -11 -10 -9 -8 -5 -2 -1 0 -1 0 3 10 15 13 9 6 8 6 1 -4 -5 -5 -5 -6 -6 -6 -6 -7 -7 -7 -6 -4 3 -0 -4
-5 -5 -5 -6 -6 -5 -5 -4 -3 -1 0 -1 -2 -3 -1 2 1 -3 -7 -7 -4 -1 0 1 1 1 -1 -2 -3 -3 -5 -6 -6 -5 -1 2 4 5 5 5 5 3 1 -0 -1 -2 -4 -7 -9 -12 -13 -12 -10 -10 -10 -8 -4 -1 1 -0 -0 2 7 14 15 12 10 13 10 4 -4 -5 -5 -6 -7 -7 -7 -7 -8 -8 -8 -8 -6 0 -0 -4
-7 -7 -7 -6 -5 -3 -2 -2 -2 -1 1 1 -1 -3 -5 -2 0 0 -2 -3 -2 -1 -2 -2 0 2 3 -0 -2 -4 -5 -6 -6 -6 -3 -1 2 4 5 7 7 7 4 2 1 -0 -2 -5 -8 -10 -12 -12 -10 -8 -7 -6 -3 -0 0 -0 -0 1 5 12 15 15 14 15 11 5 -3 -5 -6 -6 -8 -8 -9 -9 -10 -9 -9 -9 -7 -3 -2 -6
-6 -6 -5 -3 -2 0 1 0 -1 -1 0 1 0 -1 -3 -2 -1 -1 -3 -3 -1 1 -0 -2 -1 1 4 2 -0 -3 -5 -6 -6 -5 -4 -3 -1 1 3 6 8 9 8 5 3 2 0 -2 -5 -7 -10 -10 -9 -7 -4 -2 0 1 -0 -1 -1 0 3 9 13 14 14 14 9 4 -2 -4 -5 -6 -7 -8 -9 -10 -12 -11 -10 -9 -7 -3 -1 -3
-1 -1 -2 -2 0 2 3 1 -1 -1 -0 2 1 -1 -2 -1 -0 0 -2 -3 -2 -0 0 -1 -1 1 4 3 1 -2 -5 -5 -5 -5 -5 -5 -4 -2 -1 2 6 9 10 8 6 4 2 -0 -2 -3 -6 -7 -7 -7 -5 -2 0 1 -1 -3 -3 -2 0 5 9 12 13 11 7 2 -2 -2 -3 -4 -5 -6 -8 -10 -12 -11 -10 -8 -7 -2 3 3
0 0 -1 -1 -0 2 3 2 -0 -2 -1 1 1 1 -1 -2 -1 0 0 -2 -2 -1 -0 -2 -2 -0 4 5 3 -1 -4 -5 -5 -5 -4 -5 -5 -4 -4 -3 -0 4 8 9 8 5 2 -0 -1 -2 -1 -2 -3 -4 -4 -3 -1 -1 -3 -4 -4 -4 -3 1 6 10 12 10 6 2 -1 -1 -0 -1 -2 -4 -7 -9 -11 -10 -9 -8 -6 -1 5 7
0 -0 -1 -1 -0 0 2 2 2 1 -0 0 1 1 2 0 -0 -0 0 -0 -1 -1 -1 -1 -3 -4 -2 4 5 3 -2 -5 -5 -5 -4 -4 -5 -6 -6 -7 -7 -4 1 5 6 6 3 0 -2 -3 -1 1 1 0 -2 -1 1 1 -2 -3 -4 -5 -5 -2 3 8 12 10 7 4 3 2 1 1 -0 -2 -4 -7 -8 -8 -8 -7 -6 -2 4 7
1 1 -0 -1 -1 -0 1 1 1 1 1 -0 -0 -0 1 2 2 2 1 1 -1 -3 -4 -2 -2 -2 -3 -1 3 4 1 -3 -4 -4 -3 -3 -4 -5 -7 -9 -10 -10 -8 -4 -1 1 2 0 -3 -5 -6 -1 2 3 -0 -1 0 1 -1 -2 -4 -5 -6 -4 1 6 11 10 8 6 6 5 3 1 -1 -2 -3 -5 -6 -7 -8 -8 -6 -3 2 5
0 2 2 -0 -1 -1 1 2 2 1 -1 -1 -1 -2 -1 1 3 3 2 1 -0 -2 -3 -4 -3 -2 -1 -1 1 3 2 -1 -3 -4 -3 -3 -3 -4 -7 -9 -10 -11 -10 -9 -8 -6 -4 -3 -3 -5 -8 -5 -1 3 4 2 -0 -2 -4 -3 -4 -6 -7 -6 -2 3 8 8 6 5 5 6 5 3 -0 -3 -4 -5 -5 -7 -8 -8 -8 -5 -1 4
-1 1 3 1 -1 -2 -1 3 4 3 1 -1 -1 -2 -2 -0 1 2 1 0 -0 -1 -1 -2 -3 -3 -1 -1 0 2 3 -0 -2 -4 -4 -3 -2 -2 -6 -8 -10 -10 -8 -8 -10 -11 -11 -8 -6 -5 -6 -8 -7 -3 3 6 4 -0 -4 -4 -5 -6 -7 -8 -5 -1 5 5 3 2 2 5 6 5 3 -1 -3 -5 -6 -7 -8 -8 -8 -7 -4 2
-2 0 4 4 2 -2 -3 0 3 3 2 1 -1 -1 -1 -1 0 1 1 1 0 -0 -0 -1 -2 -2 -0 -1 -0 1 2 -1 -3 -5 -4 -2 -0 0 -3 -7 -9 -8 -7 -7 -9 -11 -12 -10 -8 -6 -5 -7 -8 -8 -5 2 5 4 -2 -4 -5 -6 -7 -8 -8 -5 1 3 1 -2 -2 1 3 5 5 1 -1 -4 -5 -6 -6 -7 -8 -8 -5 -0
-1 -0 3 6 4 1 -2 -1 0 2 3 1 -0 -1 -1 -1 -2 -2 -0 1 1 0 0 1 1 1 2 0 1 2 3 -1 -3 -5 -5 -3 0 2 -1 -6 -8 -7 -5 -5 -7 -9 -10 -9 -7 -6 -5 -6 -8 -9 -11 -6 -1 3 1 -3 -5 -6 -6 -7 -9 -8 -2 2 2 -1 -2 -2 -1 1 4 3 0 -2 -4 -4 -5 -6 -7 -7 -5 -0
1 1 2 3 3 1 -1 -2 -1 1 2 2 1 0 0 -0 -2 -3 -3 -1 -0 -0 -0 0 1 1 2 2 1 1 2 0 -2 -4 -5 -5 0 4 0 -5 -6 -5 -4 -4 -6 -7 -7 -6 -6 -6 -6 -7 -8 -10 -12 -11 -8 -3 0 -2 -3 -5 -5 -5 -7 -8 -6 0 3 4 2 0 -0 0 1 2 2 0 -2 -3 -4 -5 -6 -5 -3 1
0 -0 -1 -0 -0 -0 -1 -1 -1 -0 1 1 1 1 1 1 0 -1 -1 -1 -1 -1 -1 -1 -1 0 2 2 2 1 2 1 -1 -3 -5 -5 -1 3 2 -2 -4 -4 -3 -4 -5 -5 -5 -4 -4 -5 -6 -7 -8 -10 -11 -12 -11 -8 -4 -2 -2 -2 -2 -2 -4 -5 -7 -2 3 7 7 4 2 1 1 2 2 2 1 -1 -3 -4 -4 -3 -1 2
-0 -0 -0 0 1 1 1 1 1 1 1 0 -1 -1 -1 -0 -0 0 0 0 -0 -1 -1 -1 -1 0 2 2 2 2 2 1 -1 -3 -5 -5 -1 2 3 -1 -3 -4 -3 -3 -3 -4 -3 -3 -3 -4 -5 -7 -8 -8 -9 -10 -10 -9 -7 -5 -3 -2 -1 -1 -1 -3 -5 -4 0 4 7 5 4 2 1 2 1 1 1 -1 -2 -2 -3 -2 -0 2
0 1 1 1 2 2 2 2 2 2 2 0 -1 -2 -3 -2 -2 -1 0 1 0 -0 -1 -1 -0 1 2 2 2 2 3 1 -0 -2 -4 -5 -2 1 3 -1 -3 -3 -2 -2 -2 -2 -2 -2 -3 -3 -5 -6 -6 -7 -7 -7 -7 -8 -8 -7 -5 -3 -2 -2 -3 -4 -6 -6 -5 -2 1 1 1 1 -0 -0 -0 -0 -1 -1 -1 -1 -2 -2 -2 0
1 2 2 1 1 2 2 2 2 2 2 2 0 -1 -3 -3 -3 -2 0 1 1 -0 -1 -2 -1 0 2 3 3 2 2 1 0 -2 -3 -4 -2 0 2 -1 -2 -3 -1 -1 -1 -1 -2 -2 -2 -3 -4 -5 -5 -5 -5 -5 -5 -6 -7 -7 -7 -6 -6 -6 -7 -8 -9 -9 -8 -7 -6 -5 -3 -2 -2 -1 -1 -1 -2 -2 -1 -2 -2 -4 -4 -2
2 2 1 0 0 0 0 1 1 1 2 2 1 0 -1 -2 -2 -2 -1 1 1 -0 -1 -1 -1 -0 1 2 3 3 2 2 0 -1 -2 -2 -2 -1 1 -1 -2 -2 -1 -0 -0 -1 -1 -2 -3 -3 -4 -4 -4 -3 -3 -3 -4 -4 -5 -6 -7 -7 -7 -7 -7 -8 -8 -8 -7 -6 -6 -6 -5 -4 -3 -1 -1 -0 -1 -1 -1 -2 -4 -6 -6 -5
3 2 1 -0 -1 -1 -1 -0 0 1 1 2 1 1 1 0 -0 -1 -1 -0 0 -0 -1 -0 -0 -0 0 1 2 3 3 3 1 -1 -1 -2 -2 -2 0 -0 -1 -1 -1 0 1 1 -0 -2 -2 -3 -3 -3 -2 -1 -2 -2 -3 -3 -4 -5 -5 -5 -5 -5 -5 -5 -5 -5 -4 -2 -2 -2 -2 -2 -1 -0 1 2 2 1 0 -1 -4 -8 -8 -6
2 1 1 0 0 -0 0 0 1 2 2 2 2 2 2 2 2 0 -1 -0 -0 -1 -1 -0 0 0 0 0 1 2 5 4 1 -1 -1 -2 -3 -2 1 1 -0 -1 -1 0 1 2 1 -1 -2 -2 -2 -1 -1 -0 -1 -1 -2 -2 -3 -3 -3 -3 -3 -3 -3 -4 -4 -4 -2 -1 0 1 1 1 1 1 2 3 4 4 3 1 -4 -8 -7 -4
-1 -1 0 1 2 2 2 2 2 3 3 3 3 3 3 3 3 2 1 0 -0 -1 -1 -1 0 1 1 0 -0 1 4 4 1 -1 -1 -3 -2 -1 2 1 0 -0 0 1 1 1 1 -1 -2 -3 -1 -0 -0 -0 -0 -1 -1 -1 -1 -1 -1 -1 -1 -2 -2 -3 -3 -4 -3 -2 -1 -1 -1 -1 -1 -0 0 1 3 4 4 1 -4 -7 -6 -4
-3 -2 -0 2 3 4 3 3 3 3 3 4 4 4 4 4 4 3 1 0 -0 -1 -1 -1 -0 1 2 1 0 1 3 3 1 -1 -2 -3 -2 0 2 1 1 0 0 1 1 0 1 1 -1 -3 -1 -0 0 0 -0 -0 -0 -1 -1 -1 -1 -1 -1 -1 -1 -2 -3 -4 -4 -4 -5 -5 -5 -5 -5 -3 -3 -2 -1 0 -0 -2 -6 -7 -6 -5
-3 -2 1 3 4 5 4 3 3 3 3 3 3 4 4 4 4 3 2 1 0 -1 -1 -2 -1 -0 1 1 2 2 3 3 1 -1 -2 -3 -2 0 2 2 1 1 0 1 1 1 2 2 1 -1 -1 -0 0 0 1 0 -0 -0 -1 -0 -0 -0 -0 -0 -1 -1 -2 -3 -4 -5 -6 -7 -7 -6 -6 -5 -4 -3 -3 -3 -4 -6 -8 -7 -5 -2
-1 1 3 5 5 5 4 3 2 2 2 2 2 2 2 3 3 3 2 1 1 0 -1 -1 -1 -1 -1 0 1 3 4 3 1 -1 -2 -2 -2 -0 2 2 1 1 1 1 1 1 2 3 2 1 -0 -1 -0 0 1 1 1 1 1 1 1 1 0 -0 -1 -1 -2 -2 -3 -4 -5 -5 -5 -5 -3 -2 -2 -1 -2 -3 -5 -6 -7 -6 -4 -2
1 3 5 5 4 3 3 2 2 2 2 2 2 2 1 2 2 2 2 2 1 1 0 -0 -1 -1 -1 -1 0 2 4 3 1 -1 -2 -2 -2 -1 1 2 1 1 0 0 0 1 1 2 2 1 -0 -0 0 1 1 0 1 1 2 2 2 1 1 1 0 0 -0 -1 -2 -3 -4 -4 -4 -4 -3 -2 -1 -0 -0 -1 -3 -4 -5 -4 -3 -3
2 4 5 3 2 2 1 2 2 2 2 2 2 2 2 2 2 2 2 2 2 1 1 -0 -1 -1 -1 -1 -0 1 3 3 1 -0 -1 -2 -1 -1 0 1 2 1 0 0 0 0 0 1 1 0 -0 0 1 1 0 -0 0 1 2 2 2 1 1 2 2 2 1 -0 -1 -2 -2 -2 -2 -3 -3 -2 -1 -0 0 -1 -2 -3 -3 -2 -2 -2
3 4 3 2 1 1 1 1 1 1 1 1 2 2 2 2 2 2 2 2 2 2 1 0 -0 -1 -1 -1 -1 0 1 2 1 0 -1 -1 -1 -1 -0 1 2 1 0 -0 -0 0 -0 0 1 1 1 2 1 0 -1 -1 -0 0 1 1 1 1 1 1 1 1 1 1 1 1 1 -0 -1 -1 -1 -0 0 0 -0 -2 -2 -2 -2 -2 -2 -1
3 3 2 0 -0 -0 0 0 0 0 0 0 1 1 2 2 2 2 2 3 3 3 2 1 0 -0 -1 -1 -1 -1 -0 1 1 1 -0 -1 -1 -1 -1 1 1 1 0 -0 -0 -0 0 1 2 2 3 2 1 -1 -2 -1 0 2 3 2 2 2 2 1 1 0 1 2 3 3 2 1 1 1 1 -0 -1 -1 -2 -3 -3 -2 -1 -1 -0 1
2 2 1 -0 -0 -0 -0 0 0 0 0 1 1 1 2 2 3 3 3 3 3 3 3 2 1 0 0 -0 -1 -1 -1 -0 0 0 0 -0 -1 -1 -1 0 1 1 0 -0 -0 -0 0 1 2 2 2 1 0 -1 -2 -1 1 2 2 1 0 -0 -0 -0 1 1 2 3 2 2 0 0 1 1 -0 -2 -3 -4 -6 -6 -4 -3 -2 -2 -1 0
1 1 1 1 1 1 1 1 1 0 0 0 0 1 1 2 3 3 4 4 3 3 3 3 2 1 0 0 -0 -1 -1 -1 -0 -0 0 0 -0 -0 -0 -0 0 0 0 -0 -0 0 0 0 1 1 1 1 1 0 -0 0 0 -1 -3 -3 -3 -2 -2 -1 -0 1 3 3 1 -0 -1 -0 -0 -1 -1 -2 -3 -3 -3 -1 0 -0 -2 -4 -5 -4
1 1 1 1 1 2 2 2 2 1 -0 -1 -1 -1 -1 0 1 2 3 4 3 3 3 3 3 2 1 0 -0 -0 -1 -1 -1 -0 0 0 0 0 0 0 0 0 -0 -0 -0 -0 0 0 0 1 1 1 1 0 0 -0 -1 -2 -3 -1 1 3 3 2 2 2 2 2 1 1 2 2 2 1 1 1 1 1 3 4 3 2 2 -0 -2 -4
1 1 1 1 1 1 2 2 2 1 0 -1 -1 -1 -1 -1 -0 0 1 1 2 2 2 3 3 2 2 1 1 0 -0 -0 -0 0 0 1 1 1 1 0 0 0 -0 -0 -0 -0 0 0 0 1 1 1 0 0 0 -1 -2 -2 0 3 5 4 3 2 2 2 1 1 1 2 3 2 1 1 2 2 2 3 4 1 -2 -5 -6 -6 -3 -0
2 2 2 1 1 1 2 2 2 2 1 0 0 0 -0 -0 -1 -1 -1 -0 0 1 1 2 2 2 2 2 2 1 1 0 0 -0 0 1 1 1 1 1 1 1 -0 -0 -0 -0 0 0 0 1 0 -1 -1 -1 1 -1 -1 -1 2 3 1 -2 -5 -3 -1 0 0 1 2 1 1 0 0 1 1 1 0 -0 -2 -5 -6 -6 -7 -10 -9 -7
2 2 2 1 0 0 0 1 2 2 2 1 1 0 -0 -0 -1 -1 -1 -0 -0 0 0 1 2 2 3 2 2 1 1 1 -0 -0 -0 0 1 1 1 1 1 1 0 -1 -1 -1 -0 0 0 0 -1 -1 -1 -0 0 0 0 0 1 0 -1 -2 0 3 3 1 0 1 1 1 1 1 2 2 1 1 0 -1 -4 -5 -3 -1 -1 -0 -1 -4
2 2 1 1 0 -0 -0 1 2 2 2 2 1 0 0 0 -0 -0 -1 -1 -1 -0 -0 -0 0 1 2 2 2 2 1 1 1 -0 -0 0 1 1 2 2 2 1 1 -0 -1 -1 -0 0 0 -0 -1 -1 -0 1 2 2 1 1 0 -0 1 3 7 7 4 1 1 1 0 0 1 2 2 1 -1 -3 -4 -4 -4 -2 -0 -0 -2 -2 -2 -2
1 0 0 0 1 1 1 1 1 2 2 2 2 1 0 0 0 1 0 -0 -1 -1 -0 -0 -0 -0 0 1 2 2 2 2 2 1 1 0 0 1 2 2 2 2 1 0 -0 -0 -0 -0 -1 -1 -2 -1 0 2 3 3 2 1 0 0 2 3 4 1 -2 -3 -1 1 1 2 2 1 -0 -2 -3 -3 -2 -2 -1 -1 -2 -4 -6 -8 -8 -7
0 -0 -0 0 1 1 1 1 1 1 2 2 2 1 0 -0 0 0 1 0 0 -0 -0 0 1 1 1 1 1 2 2 2 3 3 2 1 0 -0 0 1 1 1 1 1 0 0 -1 -1 -1 -1 -1 -0 1 2 4 3 2 2 1 1 1 1 0 -1 -1 -0 1 1 2 2 1 -1 -2 -3 -1 2 3 3 3 1 -1 -4 -5 -6 -5 -4
-1 -1 -1 -0 -0 0 0 1 1 1 2 2 2 2 2 1 -0 -0 -0 0 0 0 -0 1 1 2 2 2 1 1 2 2 2 3 3 2 1 0 -0 0 0 1 1 1 1 1 0 -1 -1 -1 -0 0 1 2 3 3 2 2 1 -0 -1 -1 1 3 4 4 3 2 1 0 -2 -3 -3 -1 2 3 2 0 -1 -2 -3 -3 -3 -3 -2 -1
-1 -1 -1 -1 -1 -1 -1 -0 0 1 1 1 2 2 2 2 2 1 0 0 0 -0 -1 -0 0 1 2 3 3 2 2 2 2 2 2 2 2 1 1 0 0 0 0 0 0 1 1 1 0 0 -0 0 1 1 2 2 2 0 -1 -2 -2 -1 2 4 3 2 -0 1 0 -1 -3 -2 0 3 4 0 -3 -4 -4 -4 -4 -3 -3 -3 -3 -4
0 0 -0 -1 -1 -1 -1 -1 -0 -0 -0 -0 0 1 2 2 3 3 2 1 1 0 -0 -1 -1 0 1 2 3 3 3 2 2 2 2 2 2 2 2 1 1 0 -0 -1 -1 -1 -0 0 1 1 0 0 0 1 1 1 -0 -2 -3 -3 -2 -0 1 2 0 -2 -2 -1 -0 -1 -2 -1 1 2 0 -2 -2 -0 1 0 -1 -1 -2 -3 -3 -4
1 0 0 -0 -1 -1 -1 -1 -1 -1 -1 -1 -0 0 1 2 2 3 3 2 2 1 1 0 -0 -0 -0 1 2 3 3 2 2 2 2 2 2 2 2 2 2 1 0 -0 -1 -1 -2 -1 -0 1 2 0 -0 -1 -0 -1 -1 -2 -3 -1 -1 -0 0 0 -1 -1 -1 -0 -1 -1 -2 -1 -2 -4 -7 -5 -2 1 1 -1 -2 -2 -2 -3 -3 -4
Height
2884 2881 2879 2877 2875 2873 2872 2871 2869 2867 2865 2864 2862 2861 2859 2858 2857 2856 2855 2854 2853 2852 2851 2850 2849 2849 2848 2848 2847 2846 2846 2844 2842 2841 2840 2840 2840 2840 2840 2840 2841 2841 2841 2842 2842 2842 2842 2842 2842 2842 2842 2843 2845 2846 2848 2850 2851 2853 2856 2861 2865 2868 2868 2870 2872 2875 2878 2881 2885 2888 2892 2896 2901 2906 2911 2915 2919 2923 2928 2931 2934 2936 2938 2942 2945 2948
2881 2879 2877 2875 2873 2871 2870 2869 2867 2866 2863 2862 2861 2859 2858 2856 2855 2854 2853 2852 2851 2850 2849 2848 2847 2847 2846 2846 2846 2845 2844 2843 2841 2840 2839 2838 2838 2838 2838 2839 2839 2840 2840 2841 2841 2841 2841 2841 2841 2841 2841 2842 2843 2846 2848 2850 2852 2854 2856 2861 2864 2865 2865 2867 2870 2873 2876 2880 2883 2887 2891 2895 2900 2904 2909 2914 2918 2922 2927 2930 2932 2934 2936 2940 2943 2946
2879 2877 2875 2874 2871 2870 2867 2866 2865 2864 2862 2860 2859 2857 2856 2854 2853 2852 2851 2850 2849 2848 2847 2846 2846 2845 2844 2844 2844 2843 2843 2842 2840 2839 2837 2836 2836 2836 2836 2837 2838 2838 2839 2840 2840 2840 2840 2840 2840 2841 2841 2841 2842 2844 2847 2850 2852 2854 2856 2857 2859 2860 2862 2866 2869 2872 2875 2878 2882 2885 2889 2894 2898 2903 2908 2912 2916 2921 2925 2928 2931 2933 2936 2939 2942 2944
2877 2875 2873 2871 2870 2868 2866 2865 2863 2862 2861 2859 2857 2855 2854 2852 2851 2850 2849 2848 2847 2846 2846 2845 2844 2843 2842 2842 2841 2841 2841 2840 2839 2838 2836 2835 2834 2833 2834 2835 2836 2836 2837 2838 2838 2839 2839 2839 2839 2839 2840 2841 2841 2843 2846 2848 2851 2853 2854 2855 2856 2858 2861 2865 2868 2871 2873 2877 2880 2884 2888 2892 2897 2902 2906 2911 2915 2919 2922 2926 2930 2932 2934 2937 2940 2942
2876 2874 2871 2869 2867 2866 2865 2864 2862 2861 2859 2857 2855 2853 2852 2851 2849 2848 2847 2846 2845 2844 2844 2843 2842 2841 2840 2840 2839 2839 2839 2838 2837 2836 2835 2833 2832 2831 2831 2832 2833 2834 2835 2836 2837 2837 2837 2838 2838 2838 2839 2840 2841 2842 2844 2846 2850 2852 2854 2854 2856 2858 2861 2864 2866 2869 2872 2875 2878 2882 2886 2891 2895 2900 2904 2909 2913 2916 2920 2924 2927 2930 2931 2934 2937 2939
2874 2872 2870 2868 2866 2864 2863 2862 2861 2859 2856 2855 2853 2851 2850 2848 2847 2846 2845 2844 2843 2842 2841 2841 2840 2839 2838 2837 2837 2836 2836 2836 2835 2834 2833 2831 2830 2829 2829 2830 2831 2832 2833 2834 2835 2836 2836 2837 2837 2838 2838 2839 2840 2841 2843 2846 2849 2851 2853 2854 2855 2857 2859 2862 2865 2867 2870 2873 2876 2881 2884 2889 2893 2897 2902 2906 2910 2914 2918 2922 2925 2928 2929 2932 2934 2936
2872 2871 2869 2867 2865 2863 2861 2860 2858 2857 2854 2852 2850 2849 2848 2846 2845 2844 2843 2842 2841 2840 2839 2838 2838 2837 2836 2835 2834 2834 2833 2833 2832 2832 2831 2830 2828 2827 2826 2827 2828 2830 2831 2832 2833 2834 2835 2836 2836 2837 2838 2839 2839 2841 2842 2845 2848 2851 2853 2853 2854 2856 2858 2860 2863 2866 2869 2872 2875 2879 2882 2886 2891 2895 2899 2903 2907 2911 2916 2920 2923 2925 2927 2929 2932 2934
2870 2869 2868 2866 2863 2861 2860 2858 2857 2855 2853 2850 2848 2846 2845 2845 2843 2842 2841 2840 2839 2838 2837 2836 2836 2835 2834 2833 2832 2831 2830 2830 2830 2829 2829 2828 2826 2825 2824 2824 2826 2827 2828 2830 2831 2832 2833 2834 2834 2835 2836 2838 2838 2839 2841 2843 2846 2849 2851 2852 2853 2854 2856 2858 2861 2864 2868 2871 2873 2876 2880 2884 2888 2892 2896 2901 2905 2909 2913 2917 2921 2923 2925 2926 2928 2932
2869 2867 2866 2864 2862 2860 2857 2856 2855 2853 2851 2849 2847 2845 2843 2842 2841 2840 2839 2838 2837 2836 2834 2833 2833 2832 2832 2831 2830 2829 2828 2827 2827 2827 2826 2826 2825 2824 2822 2822 2823 2825 2826 2827 2829 2830 2831 2832 2832 2833 2834 2836 2836 2838 2839 2841 2844 2847 2849 2850 2851 2853 2855 2857 2860 2863 2866 2869 2871 2874 2877 2881 2886 2890 2894 2898 2902 2906 2910 2914 2918 2921 2923 2924 2926 2929
2868 2866 2863 2862 2860 2858 2856 2854 2853 2852 2850 2848 2846 2844 2842 2840 2839 2837 2836 2836 2835 2834 2832 2831 2830 2830 2829 2829 2827 2826 2825 2825 2824 2824 2824 2824 2823 2822 2821 2821 2821 2822 2824 2825 2826 2828 2829 2830 2830 2831 2832 2833 2835 2836 2837 2839 2841 2844 2846 2848 2849 2851 2852 2855 2858 2861 2864 2866 2869 2871 2875 2879 2883 2887 2891 2895 2899 2903 2907 2911 2915 2918 2920 2922 2924 2926
2866 2864 2862 2860 2858 2856 2855 2853 2851 2850 2849 2847 2845 2843 2841 2839 2837 2835 2833 2833 2832 2831 2830 2829 2828 2827 2826 2826 2825 2824 2823 2822 2822 2821 2821 2821 2821 2821 2820 2819 2819 2820 2821 2823 2824 2825 2826 2827 2828 2829 2829 2831 2832 2834 2835 2837 2839 2841 2844 2846 2847 2848 2850 2852 2855 2859 2862 2864 2866 2869 2872 2876 2880 2884 2888 2892 2896 2901 2904 2908 2912 2915 2917 2920 2921 2923
2864 2862 2861 2858 2856 2855 2854 2852 2851 2849 2848 2846 2843 2841 2839 2838 2836 2833 2831 2830 2829 2829 2828 2827 2826 2825 2824 2823 2822 2822 2821 2820 2819 2819 2819 2819 2819 2819 2818 2817 2817 2818 2819 2820 2821 2823 2824 2825 2826 2826 2827 2828 2830 2832 2834 2835 2837 2839 2841 2843 2845 2846 2848 2850 2853 2856 2859 2861 2863 2866 2870 2873 2877 2881 2886 2890 2894 2898 2902 2906 2909 2912 2915 2917 2919 2920
2862 2861 2859 2858 2856 2855 2853 2852 2850 2848 2846 2844 2842 2839 2837 2836 2834 2832 2830 2829 2827 2826 2825 2824 2823 2823 2822 2821 2820 2819 2818 2818 2817 2817 2817 2817 2817 2817 2816 2816 2816 2816 2816 2818 2819 2820 2821 2822 2823 2824 2825 2826 2827 2829 2832 2834 2835 2836 2839 2841 2842 2844 2845 2847 2850 2853 2856 2858 2860 2863 2867 2871 2875 2879 2883 2887 2891 2895 2899 2903 2907 2910 2913 2915 2917 2918
2862 2861 2859 2857 2856 2854 2853 2851 2848 2846 2844 2842 2840 2837 2835 2834 2832 2831 2829 2827 2826 2824 2823 2822 2821 2821 2820 2819 2818 2817 2816 2815 2815 2815 2815 2815 2815 2815 2814 2814 2814 2814 2814 2815 2816 2818 2819 2820 2821 2822 2823 2824 2825 2826 2829 2831 2833 2834 2836 2838 2840 2841 2843 2845 2847 2850 2852 2855 2857 2861 2865 2868 2872 2876 2881 2885 2889 2893 2896 2901 2905 2908 2911 2913 2915 2916
2862 2860 2858 2856 2854 2853 2851 2849 2847 2844 2842 2840 2838 2836 2834 2832 2831 2829 2827 2825 2824 2822 2821 2820 2819 2818 2818 2817 2816 2815 2814 2813 2813 2812 2812 2813 2813 2813 2812 2812 2812 2812 2812 2812 2814 2815 2816 2818 2819 2820 2821 2822 2823 2824 2826 2828 2830 2832 2834 2836 2837 2839 2841 2843 2845 2847 2850 2852 2856 2859 2863 2867 2870 2874 2878 2882 2886 2890 2894 2898 2902 2906 2909 2911 2913 2914
2861 2859 2856 2854 2852 2851 2849 2847 2845 2843 2841 2839 2836 2834 2832 2831 2829 2827 2826 2824 2822 2821 2819 2818 2816 2816 2816 2815 2815 2813 2812 2811 2811 2811 2811 2811 2811 2811 2810 2810 2810 2810 2810 2810 2811 2812 2813 2815 2817 2818 2820 2821 2821 2822 2823 2825 2826 2829 2831 2833 2835 2838 2840 2842 2844 2846 2849 2851 2855 2858 2861 2865 2868 2872 2876 2880 2884 2888 2891 2896 2900 2904 2907 2909 2910 2912
2859 2857 2855 2852 2851 2849 2847 2845 2843 2841 2839 2837 2835 2833 2831 2829 2827 2826 2824 2822 2821 2819 2817 2816 2814 2813 2813 2813 2813 2812 2811 2810 2809 2809 2809 2809 2809 2809 2808 2808 2808 2808 2808 2808 2808 2809 2811 2812 2814 2816 2818 2819 2820 2820 2821 2822 2824 2826 2829 2831 2834 2836 2838 2841 2842 2845 2847 2850 2854 2857 2860 2863 2866 2869 2873 2877 2881 2885 2889 2893 2897 2901 2904 2906 2908 2910
2857 2855 2853 2851 2849 2847 2845 2844 2842 2840 2838 2835 2833 2831 2829 2828 2826 2824 2822 2821 2819 2817 2816 2814 2813 2812 2811 2811 2810 2810 2809 2808 2807 2807 2807 2807 2807 2807 2806 2806 2806 2806 2806 2807 2807 2807 2808 2809 2811 2814 2816 2818 2819 2819 2820 2820 2822 2824 2826 2829 2832 2834 2836 2839 2841 2843 2846 2848 2852 2855 2858 2861 2864 2867 2870 2874 2878 2882 2886 2890 2894 2898 2901 2904 2906 2907
2855 2854 2852 2850 2847 2845 2844 2842 2841 2838 2836 2834 2831 2829 2827 2826 2824 2823 2821 2819 2817 2815 2814 2812 2811 2810 2810 2809 2808 2808 2807 2806 2806 2806 2806 2806 2806 2805 2805 2805 2805 2805 2805 2806 2806 2806 2806 2807 2809 2811 2814 2816 2817 2818 2818 2819 2820 2822 2825 2827 2830 2832 2834 2837 2839 2841 2843 2846 2850 2853 2856 2859 2862 2865 2868 2871 2875 2879 2883 2887 2891 2895 2898 2901 2903 2905
2853 2852 2851 2848 2846 2844 2842 2841 2839 2837 2835 2832 2830 2828 2826 2824 2822 2821 2819 2817 2816 2814 2812 2811 2810 2809 2808 2807 2807 2806 2806 2805 2804 2804 2804 2804 2804 2804 2803 2803 2803 2803 2804 2804 2805 2805 2806 2806 2808 2809 2812 2814 2816 2816 2817 2817 2818 2820 2823 2825 2827 2830 2832 2835 2837 2839 2842 2844 2848 2851 2854 2857 2860 2863 2866 2869 2873 2876 2880 2884 2888 2892 2895 2898 2901 2902
2852 2851 2849 2847 2845 2842 2840 2838 2837 2835 2833 2831 2829 2826 2824 2822 2821 2819 2817 2816 2814 2813 2811 2810 2809 2808 2807 2806 2805 2805 2804 2803 2802 2802 2802 2802 2802 2802 2802 2801 2801 2801 2802 2802 2803 2804 2804 2805 2806 2808 2809 2811 2813 2815 2816 2816 2816 2818 2820 2823 2825 2827 2830 2832 2835 2838 2841 2843 2846 2849 2852 2855 2858 2861 2864 2867 2871 2874 2878 2882 2886 2889 2893 2896 2898 2900
2851 2849 2847 2846 2843 2841 2838 2836 2835 2833 2831 2829 2827 2825 2822 2820 2818 2816 2815 2814 2812 2811 2810 2808 2807 2806 2805 2804 2804 2803 2803 2801 2801 2800 2800 2800 2800 2801 2801 2800 2799 2800 2800 2801 2801 2802 2802 2804 2805 2806 2807 2809 2810 2812 2814 2815 2815 2816 2818 2820 2823 2825 2828 2831 2833 2836 2839 2842 2845 2847 2851 2853 2856 2859 2862 2866 2869 2872 2876 2879 2883 2886 2890 2893 2896 2898
2850 2847 2845 2843 2841 2839 2836 2834 2832 2831 2829 2827 2825 2823 2821 2819 2816 2815 2813 2812 2811 2809 2808 2806 2805 2804 2803 2803 2802 2801 2801 2800 2799 2798 2798 2798 2799 2799 2799 2798 2798 2798 2799 2799 2800 2800 2801 2802 2803 2804 2805 2806 2808 2810 2811 2813 2814 2815 2816 2818 2821 2823 2826 2828 2831 2834 2837 2840 2843 2846 2849 2851 2854 2857 2860 2864 2867 2870 2873 2877 2880 2884 2887 2891 2894 2896
2848 2846 2843 2841 2839 2837 2835 2833 2831 2829 2827 2826 2823 2821 2819 2817 2815 2813 2811 2810 2808 2807 2806 2804 2803 2802 2801 2801 2800 2799 2799 2798 2797 2796 2796 2796 2797 2797 2797 2797 2796 2797 2797 2798 2798 2799 2799 2800 2801 2802 2803 2804 2806 2807 2809 2811 2813 2814 2815 2817 2819 2821 2824 2826 2829 2832 2835 2838 2840 2843 2846 2849 2852 2855 2858 2861 2865 2868 2871 2875 2878 2881 2885 2888 2891 2894
2847 2845 2842 2840 2838 2836 2834 2832 2830 2828 2826 2824 2821 2819 2817 2815 2813 2811 2810 2808 2806 2805 2804 2802 2801 2800 2800 2799 2798 2798 2797 2796 2796 2795 2794 2794 2795 2796 2796 2795 2795 2795 2796 2796 2797 2797 2798 2799 2800 2801 2801 2802 2804 2805 2807 2809 2811 2813 2814 2816 2817 2819 2821 2824 2826 2829 2832 2835 2838 2840 2843 2846 2850 2853 2856 2859 2862 2865 2868 2872 2875 2879 2882 2886 2889 2892
2846 2844 2841 2839 2837 2835 2833 2831 2829 2827 2825 2822 2820 2817 2815 2813 2811 2810 2808 2806 2805 2803 2802 2801 2799 2799 2798 2797 2796 2796 2795 2795 2794 2793 2793 2792 2793 2794 2794 2794 2794 2794 2794 2795 2795 2796 2796 2797 2798 2799 2800 2801 2802 2803 2805 2807 2809 2811 2812 2814 2815 2817 2819 2821 2823 2826 2829 2832 2835 2838 2841 2844 2847 2850 2853 2856 2859 2862 2866 2869 2872 2876 2879 2882 2885 2888
2845 2843 2841 2838 2836 2834 2831 2829 2827 2825 2823 2821 2819 2816 2814 2811 2810 2808 2806 2805 2803 2801 2800 2799 2798 2797 2796 2796 2795 2794 2793 2793 2792 2791 2791 2791 2791 2792 2792 2792 2792 2792 2793 2793 2794 2794 2795 2796 2796 2797 2798 2799 2800 2802 2803 2805 2806 2808 2810 2811 2813 2815 2816 2818 2821 2823 2826 2829 2832 2836 2838 2841 2845 2848 2851 2854 2857 2860 2863 2867 2870 2873 2876 2878 2882 2885
2844 2842 2840 2837 2834 2832 2830 2828 2826 2823 2821 2819 2817 2815 2812 2810 2808 2806 2805 2803 2802 2800 2798 2797 2796 2795 2794 2794 2793 2792 2792 2791 2791 2790 2789 2789 2790 2790 2791 2791 2791 2791 2791 2792 2793 2793 2794 2794 2795 2796 2796 2797 2799 2800 2801 2803 2805 2806 2808 2810 2811 2813 2815 2817 2819 2822 2825 2828 2831 2834 2837 2840 2843 2846 2849 2852 2856 2859 2861 2865 2867 2870 2872 2875 2879 2883
2843 2841 2838 2836 2833 2830 2828 2826 2824 2821 2820 2818 2816 2814 2811 2809 2807 2805 2803 2802 2800 2799 2797 2796 2795 2793 2793 2792 2791 2791 2791 2790 2789 2788 2788 2788 2788 2788 2789 2789 2789 2790 2790 2791 2791 2792 2792 2793 2794 2794 2795 2796 2797 2799 2800 2801 2803 2804 2806 2808 2810 2811 2813 2816 2818 2820 2823 2826 2829 2832 2835 2838 2841 2844 2847 2851 2854 2857 2860 2862 2865 2868 2870 2872 2876 2880
2842 2839 2837 2834 2831 2829 2826 2824 2822 2820 2819 2816 2815 2812 2810 2808 2806 2804 2802 2800 2799 2797 2796 2794 2793 2792 2791 2790 2790 2790 2789 2789 2787 2786 2786 2786 2786 2787 2787 2787 2788 2788 2789 2789 2790 2791 2791 2792 2792 2793 2794 2795 2796 2797 2798 2800 2801 2803 2804 2806 2808 2810 2812 2814 2816 2818 2821 2823 2826 2829 2832 2836 2838 2841 2845 2848 2851 2854 2857 2860 2863 2865 2867 2870 2874 2878
2840 2837 2835 2833 2830 2828 2826 2823 2821 2820 2818 2816 2814 2811 2809 2807 2805 2803 2801 2799 2797 2796 2794 2793 2792 2791 2790 2789 2788 2788 2788 2787 2786 2785 2785 2785 2785 2785 2786 2786 2787 2787 2787 2788 2789 2789 2790 2791 2791 2791 2792 2793 2794 2795 2797 2798 2799 2801 2802 2804 2806 2808 2810 2811 2813 2816 2818 2820 2823 2826 2829 2832 2835 2838 2841 2844 2847 2851 2854 2857 2860 2862 2865 2868 2872 2876
2838 2836 2834 2831 2830 2827 2825 2823 2821 2819 2817 2815 2812 2810 2808 2806 2804 2801 2800 2798 2796 2794 2793 2791 2791 2790 2789 2788 2787 2786 2786 2786 2785 2784 2783 2783 2783 2784 2784 2785 2786 2786 2786 2787 2787 2788 2789 2790 2790 2790 2791 2792 2793 2794 2795 2796 2798 2799 2801 2802 2804 2806 2807 2809 2811 2813 2816 2818 2820 2823 2826 2829 2832 2835 2838 2841 2844 2847 2851 2854 2856 2859 2862 2866 2870 2873
2837 2835 2833 2831 2829 2827 2825 2823 2820 2818 2816 2814 2811 2809 2807 2805 2802 2800 2798 2796 2795 2793 2792 2790 2789 2788 2787 2786 2786 2786 2785 2784 2783 2782 2782 2782 2782 2783 2783 2784 2784 2785 2785 2786 2786 2787 2788 2788 2789 2789 2790 2791 2791 2792 2794 2795 2796 2798 2799 2801 2802 2804 2805 2807 2809 2811 2813 2816 2818 2821 2824 2826 2830 2833 2836 2839 2842 2845 2848 2851 2854 2856 2860 2863 2867 2871
2836 2835 2833 2831 2829 2826 2824 2822 2820 2817 2815 2812 2810 2807 2805 2803 2801 2799 2797 2795 2794 2792 2791 2789 2788 2787 2786 2785 2785 2784 2784 2783 2782 2781 2781 2781 2781 2781 2782 2783 2783 2784 2784 2785 2785 2786 2786 2787 2788 2788 2788 2789 2790 2791 2792 2794 2795 2796 2797 2799 2800 2802 2804 2806 2807 2809 2811 2814 2816 2819 2821 2825 2828 2831 2834 2837 2840 2843 2846 2849 2851 2854 2858 2861 2864 2868
2836 2834 2832 2830 2828 2825 2823 2821 2818 2816 2813 2811 2808 2806 2804 2802 2800 2798 2796 2794 2792 2791 2790 2788 2787 2786 2785 2784 2783 2783 2782 2782 2781 2780 2780 2779 2780 2780 2781 2781 2782 2782 2783 2783 2784 2785 2785 2786 2786 2787 2787 2788 2789 2790 2791 2792 2793 2795 2796 2797 2799 2801 2802 2804 2806 2807 2809 2812 2814 2817 2820 2822 2826 2829 2832 2835 2837 2841 2843 2846 2849 2852 2855 2859 2862 2866
2835 2834 2831 2829 2826 2824 2821 2819 2817 2814 2812 2810 2807 2805 2803 2801 2798 2796 2795 2793 2791 2790 2788 2787 2786 2785 2784 2783 2782 2781 2781 2781 2780 2779 2779 2778 2778 2779 2779 2780 2781 2781 2782 2782 2783 2783 2784 2785 2785 2786 2786 2787 2788 2789 2790 2791 2792 2793 2795 2796 2797 2799 2801 2802 2804 2806 2808 2810 2812 2815 2817 2820 2823 2826 2829 2831 2834 2837 2840 2843 2846 2850 2853 2856 2860 2863
2834 2832 2830 2828 2825 2822 2820 2818 2815 2813 2811 2808 2806 2804 2802 2800 2797 2795 2793 2791 2790 2789 2787 2786 2785 2784 2783 2782 2781 2780 2780 2779 2779 2778 2777 2777 2777 2777 2778 2779 2779 2780 2781 2781 2781 2782 2783 2783 2784 2785 2785 2786 2786 2787 2788 2789 2791 2792 2793 2794 2796 2797 2799 2800 2802 2804 2806 2808 2810 2812 2815 2817 2820 2823 2826 2829 2831 2834 2837 2840 2843 2846 2850 2853 2857 2861
2833 2831 2829 2826 2824 2821 2819 2817 2814 2812 2810 2807 2805 2803 2801 2799 2796 2794 2792 2791 2789 2787 2786 2785 2784 2783 2782 2781 2780 2779 2778 2778 2777 2777 2776 2776 2776 2776 2776 2777 2778 2778 2779 2780 2780 2781 2781 2782 2783 2784 2784 2785 2786 2786 2787 2788 2789 2790 2791 2792 2794 2795 2797 2798 2800 2802 2804 2806 2808 2810 2812 2815 2817 2820 2823 2826 2829 2832 2835 2838 2841 2844 2847 2851 2854 2858
2832 2830 2828 2825 2823 2821 2818 2816 2814 2811 2809 2807 2804 2802 2800 2798 2796 2794 2791 2790 2788 2786 2785 2784 2783 2782 2781 2780 2779 2778 2777 2776 2776 2776 2775 2775 2775 2775 2775 2776 2776 2777 2777 2778 2779 2779 2780 2781 2782 2782 2783 2784 2785 2785 2786 2787 2788 2789 2790 2791 2793 2794 2795 2797 2798 2800 2802 2804 2806 2808 2810 2812 2815 2817 2820 2823 2826 2830 2832 2836 2839 2842 2845 2848 2851 2855
2831 2829 2827 2824 2822 2820 2817 2815 2813 2811 2808 2806 2804 2801 2799 2797 2795 2793 2791 2789 2787 2786 2784 2783 2781 2781 2780 2779 2778 2777 2776 2775 2775 2774 2774 2774 2774 2774 2774 2774 2775 2775 2776 2776 2777 2778 2779 2779 2780 2781 2782 2783 2783 2784 2785 2785 2786 2788 2789 2791 2791 2793 2794 2795 2797 2798 2800 2802 2804 2806 2808 2811 2813 2815 2818 2821 2823 2826 2829 2832 2835 2838 2841 2845 2849 2852
2830 2828 2826 2823 2821 2819 2817 2815 2812 2810 2808 2805 2803 2801 2798 2796 2794 2792 2790 2788 2786 2785 2783 2782 2781 2780 2779 2777 2776 2776 2775 2774 2773 2773 2773 2772 2772 2772 2773 2773 2773 2774 2774 2775 2776 2776 2777 2778 2779 2780 2781 2781 2782 2783 2783 2784 2785 2786 2788 2789 2790 2791 2792 2793 2795 2797 2798 2800 2802 2804 2806 2808 2810 2813 2815 2817 2820 2822 2825 2828 2831 2834 2838 2841 2845 2849
2829 2826 2824 2822 2820 2818 2816 2814 2812 2810 2807 2805 2802 2800 2797 2795 2793 2791 2789 2787 2786 2784 2782 2781 2780 2779 2778 2776 2776 2775 2773 2773 2772 2771 2771 2771 2771 2771 2771 2772 2772 2772 2773 2773 2774 2775 2776 2776 2777 2778 2779 2780 2781 2781 2782 2783 2784 2785 2786 2787 2788 2789 2791 2792 2794 2795 2797 2799 2800 2802 2804 2806 2808 2810 2812 2815 2817 2820 2822 2826 2829 2832 2836 2839 2842 2846
2827 2825 2823 2821 2819 2817 2815 2813 2811 2809 2807 2804 2802 2800 2797 2795 2792 2790 2788 2786 2785 2783 2781 2780 2778 2777 2776 2776 2775 2774 2773 2772 2771 2771 2770 2770 2770 2770 2770 2771 2771 2771 2771 2772 2773 2773 2774 2775 2776 2776 2777 2778 2779 2780 2781 2782 2783 2784 2785 2786 2787 2789 2791 2791 2792 2794 2795 2796 2798 2800 2802 2804 2806 2807 2810 2812 2815 2818 2821 2825 2828 2831 2834 2837 2841 2844
2826 2824 2822 2820 2818 2816 2814 2812 2811 2808 2806 2804 2801 2799 2797 2794 2792 2790 2788 2786 2784 2782 2781 2779 2778 2776 2776 2774 2774 2773 2772 2771 2770 2769 2769 2769 2769 2769 2769 2769 2770 2770 2771 2771 2771 2772 2773 2773 2774 2775 2776 2776 2777 2778 2780 2781 2781 2782 2783 2785 2786 2787 2788 2789 2790 2792 2793 2795 2796 2798 2800 2802 2804 2806 2808 2811 2813 2816 2819 2822 2826 2829 2831 2835 2838 2842
2825 2823 2821 2819 2817 2815 2813 2811 2810 2808 2806 2803 2801 2799 2796 2794 2792 2790 2787 2785 2783 2781 2780 2778 2777 2776 2774 2773 2773 2772 2771 2770 2770 2769 2768 2768 2768 2768 2768 2768 2769 2769 2769 2770 2770 2771 2771 2772 2773 2773 2774 2775 2776 2777 2778 2779 2780 2781 2782 2783 2784 2785 2786 2787 2789 2790 2791 2793 2795 2797 2798 2800 2802 2805 2807 2810 2812 2815 2817 2819 2822 2825 2828 2832 2836 2840
2824 2822 2820 2818 2816 2814 2812 2811 2809 2807 2805 2803 2801 2798 2796 2794 2791 2789 2787 2785 2783 2781 2779 2778 2776 2775 2773 2772 2771 2771 2770 2770 2769 2768 2767 2767 2766 2766 2767 2767 2767 2768 2768 2769 2769 2769 2770 2771 2771 2772 2772 2773 2774 2776 2777 2778 2779 2780 2781 2781 2782 2784 2786 2787 2788 2789 2790 2792 2793 2795 2797 2799 2801 2803 2806 2807 2810 2812 2814 2816 2819 2822 2826 2830 2834 2838
2822 2821 2819 2817 2815 2813 2811 2810 2808 2806 2804 2802 2800 2798 2795 2793 2791 2789 2787 2785 2782 2781 2779 2777 2776 2774 2773 2771 2771 2770 2769 2768 2768 2767 2767 2766 2766 2766 2766 2766 2766 2766 2767 2767 2768 2768 2768 2769 2769 2770 2771 2771 2773 2774 2775 2776 2777 2778 2779 2780 2781 2783 2785 2786 2787 2787 2789 2791 2792 2793 2795 2797 2800 2801 2803 2805 2806 2809 2811 2815 2818 2821 2824 2828 2831 2835
2821 2819 2817 2816 2814 2812 2810 2808 2807 2805 2803 2801 2799 2797 2795 2793 2791 2788 2786 2784 2782 2780 2778 2777 2775 2774 2772 2771 2770 2769 2768 2767 2767 2766 2766 2765 2765 2765 2765 2765 2765 2765 2765 2766 2766 2766 2767 2767 2768 2768 2769 2770 2771 2772 2773 2774 2775 2776 2777 2778 2779 2781 2782 2783 2784 2786 2787 2789 2791 2792 2794 2796 2797 2799 2801 2803 2805 2808 2811 2814 2817 2820 2823 2826 2830 2833
2820 2818 2816 2815 2813 2811 2809 2807 2806 2804 2802 2800 2798 2796 2794 2792 2790 2788 2786 2784 2782 2780 2778 2776 2774 2773 2771 2770 2769 2768 2767 2766 2766 2765 2765 2764 2764 2764 2763 2763 2763 2763 2764 2764 2764 2765 2765 2766 2766 2767 2767 2768 2769 2770 2771 2772 2773 2774 2775 2776 2777 2779 2781 2782 2783 2784 2786 2787 2789 2791 2792 2793 2795 2796 2799 2802 2805 2807 2810 2812 2815 2818 2821 2825 2828 2832
2819 2817 2815 2813 2811 2810 2808 2806 2804 2802 2801 2799 2797 2795 2793 2791 2790 2788 2786 2784 2781 2780 2778 2776 2774 2772 2771 2769 2768 2767 2766 2766 2765 2764 2764 2763 2762 2762 2762 2762 2762 2762 2762 2762 2762 2763 2763 2764 2764 2765 2766 2766 2767 2768 2769 2770 2771 2772 2773 2774 2776 2777 2779 2781 2782 2783 2785 2786 2787 2789 2790 2791 2793 2796 2798 2801 2803 2805 2807 2810 2813 2816 2819 2822 2826 2830
2818 2816 2814 2812 2811 2809 2807 2805 2803 2801 2800 2798 2796 2794 2792 2791 2789 2787 2785 2783 2781 2779 2777 2776 2774 2772 2770 2768 2767 2766 2765 2764 2764 2763 2762 2762 2761 2761 2761 2761 2761 2761 2761 2761 2761 2761 2761 2762 2762 2763 2764 2764 2765 2766 2766 2768 2769 2770 2771 2772 2774 2775 2777 2779 2780 2781 2783 2784 2786 2787 2789 2791 2793 2796 2798 2800 2801 2803 2805 2808 2811 2814 2817 2821 2824 2828